Weather in Dombarovka

Russia / Orenburg Oblast     50°51′16″N   59°19′45″E
temp.,
°C
wind,
m/s
gust,
m/s
humid.,
%
clouds,
%
prec.,
mm/h
press.,
hPa
HPBL,
m
2 march, tue
tue223:00−14wsw479699 0.3 1020189
02:00−16wsw579593 0.1 1020129
05:00−16wsw479694 0.1 1020175
08:00−20wsw579784 0.0 102198
11:00−18wsw689364 0.0 1022316
14:00−16wsw699081 0.0 1020407
17:00−14wsw6108958 0.0 1019402
20:00−14sw7148958 0.0 1018368
3 march, wed
wed323:00−11sw8169079 0.0 1017469
02:00−7sw91588100 0.0 1014604
05:00−6sw81689100 0.0 1012692
08:00−3sw91688100 0.1 1010796
11:00−2sw101589100 0.1 1009959
14:00−1sw101488100 0.1 1008999
17:00−1sw91493100 0.4 1007970
20:00−1sw71395100 0.3 1007686
4 march, thu
thu423:00−2sw71295100 0.7 1006543
02:00−2sw61194100 0.3 1005479
05:00−3sw71295100 0.8 1006546
08:00−5wnw51094100 0.3 1007306
11:00−8wnw6119088 0.4 1010447
14:00−7w7118688 0.0 1012664
17:00−8w6118893 0.0 1014599
20:00−12wsw599140 0.0 1017158
5 march, fri
fri523:00−12sw6149220 0.0 1019301
02:00−10sw6139271 0.0 1018327
05:00−7sw9178885 0.0 1018627
08:00−6sw8188597 0.0 1018568
11:00−4sw10188252 0.0 1019743
14:00−2sw11187712 0.0 1018905
17:00−2sw10187825 0.0 1019848
20:00−4sw10188092 0.0 1019606
6 march, sat
sat623:00−5sw9178391 0.0 1020522
02:00−6sw716825 0.0 1019392
05:00−7sw7148543 0.0 1019276
08:00−8ssw7128648 0.0 1019247
11:00−4sw8148857 0.0 1018387
14:00−1sw9148686 0.0 1016676
17:00−1sw7138789 0.0 1015628
20:00−3ssw7159153 0.0 1014482